Time,TemperatureF,DewpointF,PressureIn,WindDirection,WindDirectionDegrees,WindSpeedMPH,WindSpeedGustMPH,Humidity,HourlyPrecipIn,Conditions,Clouds,dailyrainin,SoftwareType,DateUTC
2013-01-08 00:12:00,30.0,-99.9,-100.00,SSW,193,6.0,14.0,-999,-99.99,,,-99.99,,2013-01-08 05:12:00,
2013-01-08 00:33:00,30.0,-99.9,30.23,SSW,199,6.0,11.0,-999,-99.99,,,-99.99,,2013-01-08 05:33:00,
2013-01-08 00:43:00,30.0,-99.9,30.23,SSW,200,3.0,11.0,-999,-99.99,,,-99.99,,2013-01-08 05:43:00,
2013-01-08 01:03:00,30.0,-99.9,30.23,South,181,5.0,11.0,-999,-99.99,,,-99.99,,2013-01-08 06:03:00,
2013-01-08 01:12:00,30.0,-99.9,-100.00,SSW,193,5.0,11.0,-999,-99.99,,,-99.99,,2013-01-08 06:12:00,
2013-01-08 01:23:00,30.0,-99.9,30.23,SSW,206,3.0,10.0,-999,-99.99,,,-99.99,,2013-01-08 06:23:00,
2013-01-08 01:33:00,30.0,-99.9,30.23,South,189,3.0,8.0,-999,-99.99,,,-99.99,,2013-01-08 06:33:00,
2013-01-08 01:43:00,29.0,-99.9,30.23,South,185,4.0,9.0,-999,-99.99,,,-99.99,,2013-01-08 06:43:00,
2013-01-08 02:02:00,29.0,-99.9,30.24,South,183,4.0,10.0,-999,-99.99,,,-99.99,,2013-01-08 07:02:00,
2013-01-08 02:12:00,29.0,-99.9,30.24,SSW,195,3.0,12.0,-999,-99.99,,,-99.99,,2013-01-08 07:12:00,
2013-01-08 02:22:00,-999.0,-99.9,-100.00,SSW,198,4.0,11.0,-999,-99.99,,,-99.99,,2013-01-08 07:22:00,
2013-01-08 02:42:00,-999.0,-99.9,-100.00,South,190,7.0,12.0,-999,-99.99,,,-99.99,,2013-01-08 07:42:00,
2013-01-08 03:12:00,30.0,-99.9,-100.00,South,184,8.0,13.0,-999,-99.99,,,-99.99,,2013-01-08 08:12:00,
2013-01-08 03:32:00,31.0,-99.9,30.23,SSW,198,9.0,21.0,-999,-99.99,,,-99.99,,2013-01-08 08:32:00,
2013-01-08 03:42:00,32.0,-99.9,30.24,SW,215,9.0,17.0,-999,-99.99,,,-99.99,,2013-01-08 08:42:00,
2013-01-08 03:53:00,-999.0,-99.9,-100.00,SSW,206,9.0,17.0,-999,-99.99,,,-99.99,,2013-01-08 08:53:00,
2013-01-08 04:02:00,33.0,-99.9,30.24,SSW,212,9.0,-999.0,-999,-99.99,,,-99.99,,2013-01-08 09:02:00,
2013-01-08 04:12:00,33.0,-99.9,30.24,North,-999,-999.0,-999.0,-999,-99.99,,,-99.99,,2013-01-08 09:12:00,
2013-01-08 04:43:00,32.0,-99.9,-100.00,SSW,211,8.0,14.0,-999,-99.99,,,-99.99,,2013-01-08 09:43:00,
2013-01-08 05:12:00,33.0,-99.9,30.25,SSW,211,7.0,10.0,-999,-99.99,,,-99.99,,2013-01-08 10:12:00,
2013-01-08 05:22:00,-999.0,-99.9,-100.00,SSW,211,7.0,11.0,-999,-99.99,,,-99.99,,2013-01-08 10:22:00,
2013-01-08 05:43:00,-999.0,-99.9,-100.00,SSW,197,7.0,11.0,-999,-99.99,,,-99.99,,2013-01-08 10:43:00,
2013-01-08 05:53:00,34.0,-99.9,30.25,SSW,213,8.0,14.0,-999,-99.99,,,-99.99,,2013-01-08 10:53:00,
2013-01-08 06:02:00,34.0,-99.9,30.25,SSW,206,7.0,11.0,-999,-99.99,,,-99.99,,2013-01-08 11:02:00,
2013-01-08 06:12:00,34.0,-99.9,-100.00,SW,215,9.0,15.0,-999,-99.99,,,-99.99,,2013-01-08 11:12:00,
2013-01-08 06:33:00,34.0,-99.9,30.26,SW,216,8.0,16.0,-999,-99.99,,,-99.99,,2013-01-08 11:33:00,
2013-01-08 06:43:00,34.0,-99.9,-100.00,SSW,213,7.0,13.0,-999,-99.99,,,-99.99,,2013-01-08 11:43:00,
2013-01-08 07:03:00,33.0,-99.9,30.26,SSW,212,9.0,13.0,-999,-99.99,,,-99.99,,2013-01-08 12:03:00,
2013-01-08 07:22:00,33.0,-99.9,30.26,SSW,212,6.0,14.0,-999,-99.99,,,-99.99,,2013-01-08 12:22:00,
2013-01-08 07:43:00,34.0,-99.9,30.27,SSW,206,9.0,15.0,-999,-99.99,,,-99.99,,2013-01-08 12:43:00,
2013-01-08 08:03:00,33.0,-99.9,30.28,SSW,195,9.0,17.0,-999,-99.99,,,-99.99,,2013-01-08 13:03:00,
2013-01-08 08:13:00,30.0,-99.9,-100.00,South,176,4.0,10.0,-999,-99.99,,,-99.99,,2013-01-08 13:13:00,
2013-01-08 08:22:00,-999.0,-99.9,-100.00,South,188,4.0,7.0,-999,-99.99,,,-99.99,,2013-01-08 13:22:00,
2013-01-08 08:33:00,29.0,-99.9,30.28,South,181,6.0,11.0,-999,-99.99,,,-99.99,,2013-01-08 13:33:00,
2013-01-08 08:43:00,29.0,-99.9,30.29,South,184,4.0,9.0,-999,-99.99,,,-99.99,,2013-01-08 13:43:00,
2013-01-08 08:53:00,-999.0,-99.9,-100.00,South,181,3.0,7.0,-999,-99.99,,,-99.99,,2013-01-08 13:53:00,
2013-01-08 09:13:00,-999.0,-99.9,-100.00,South,177,6.0,9.0,-999,-99.99,,,-99.99,,2013-01-08 14:13:00,
2013-01-08 09:23:00,30.0,-99.9,30.29,South,180,6.0,11.0,-999,-99.99,,,-99.99,,2013-01-08 14:23:00,
2013-01-08 09:33:00,31.0,-99.9,30.29,South,183,4.0,9.0,-999,-99.99,,,-99.99,,2013-01-08 14:33:00,
2013-01-08 09:44:00,31.0,-99.9,-100.00,SSW,193,6.0,8.0,-999,-99.99,,,-99.99,,2013-01-08 14:44:00,
2013-01-08 10:03:00,31.0,-99.9,30.30,South,183,6.0,10.0,-999,-99.99,,,-99.99,,2013-01-08 15:03:00,
2013-01-08 10:12:00,32.0,-99.9,30.31,South,171,5.0,10.0,-999,-99.99,,,-99.99,,2013-01-08 15:12:00,
2013-01-08 10:33:00,33.0,-99.9,30.30,North,-999,-999.0,-999.0,-999,-99.99,,,-99.99,,2013-01-08 15:33:00,
2013-01-08 11:03:00,35.0,-99.9,30.30,South,184,6.0,9.0,-999,-99.99,,,-99.99,,2013-01-08 16:03:00,
2013-01-08 11:13:00,36.0,-99.9,-100.00,South,182,4.0,11.0,-999,-99.99,,,-99.99,,2013-01-08 16:13:00,
2013-01-08 11:23:00,36.0,-99.9,30.30,North,-999,-999.0,-999.0,-999,-99.99,,,-99.99,,2013-01-08 16:23:00,
2013-01-08 11:43:00,37.0,-99.9,30.30,SSW,195,5.0,9.0,-999,-99.99,,,-99.99,,2013-01-08 16:43:00,
2013-01-08 11:53:00,-999.0,-99.9,-100.00,SSW,203,6.0,10.0,-999,-99.99,,,-99.99,,2013-01-08 16:53:00,
2013-01-08 12:04:00,39.0,-99.9,30.29,SSW,196,4.0,8.0,-999,-99.99,,,-99.99,,2013-01-08 17:04:00,
2013-01-08 12:23:00,39.0,-99.9,30.29,North,-999,-999.0,-999.0,-999,-99.99,,,-99.99,,2013-01-08 17:23:00,
2013-01-08 12:34:00,40.0,-99.9,30.29,North,-999,-999.0,-999.0,-999,-99.99,,,-99.99,,2013-01-08 17:34:00,
2013-01-08 12:43:00,41.0,-99.9,30.28,SW,218,10.0,14.0,-999,-99.99,,,-99.99,,2013-01-08 17:43:00,
2013-01-08 12:54:00,-999.0,-99.9,-100.00,SW,231,9.0,15.0,-999,-99.99,,,-99.99,,2013-01-08 17:54:00,
2013-01-08 13:04:00,41.0,-99.9,30.28,SW,228,11.0,16.0,-999,-99.99,,,-99.99,,2013-01-08 18:04:00,
2013-01-08 13:13:00,42.0,-99.9,-100.00,WSW,257,9.0,11.0,-999,-99.99,,,-99.99,,2013-01-08 18:13:00,
2013-01-08 13:33:00,42.0,-99.9,30.28,WSW,240,7.0,12.0,-999,-99.99,,,-99.99,,2013-01-08 18:33:00,
2013-01-08 13:43:00,-999.0,-99.9,-100.00,SW,222,6.0,11.0,-999,-99.99,,,-99.99,,2013-01-08 18:43:00,
2013-01-08 13:53:00,42.0,-99.9,30.27,WSW,254,7.0,8.0,-999,-99.99,,,-99.99,,2013-01-08 18:53:00,
2013-01-08 14:03:00,42.0,-99.9,30.27,North,-999,-999.0,-999.0,-999,-99.99,,,-99.99,,2013-01-08 19:03:00,
2013-01-08 14:12:00,39.0,-99.9,30.27,West,267,6.0,7.0,-999,-99.99,,,-99.99,,2013-01-08 19:12:00,
2013-01-08 14:23:00,-999.0,-99.9,-100.00,WSW,258,5.0,6.0,-999,-99.99,,,-99.99,,2013-01-08 19:23:00,
2013-01-08 14:43:00,44.0,-99.9,-100.00,West,260,6.0,7.0,-999,-99.99,,,-99.99,,2013-01-08 19:43:00,
2013-01-08 15:03:00,39.0,-99.9,30.28,North,-999,-999.0,-999.0,-999,-99.99,,,-99.99,,2013-01-08 20:03:00,
2013-01-08 15:12:00,39.0,-99.9,30.28,West,264,6.0,6.0,-999,-99.99,,,-99.99,,2013-01-08 20:12:00,
2013-01-08 15:23:00,41.0,-99.9,30.28,North,-999,-999.0,-999.0,-999,-99.99,,,-99.99,,2013-01-08 20:23:00,
2013-01-08 15:43:00,-999.0,-99.9,-100.00,West,265,3.0,4.0,-999,-99.99,,,-99.99,,2013-01-08 20:43:00,
2013-01-08 15:54:00,-999.0,-99.9,-100.00,West,265,3.0,4.0,-999,-99.99,,,-99.99,,2013-01-08 20:54:00,
2013-01-08 16:03:00,39.0,-99.9,30.29,North,-999,-999.0,-999.0,-999,-99.99,,,-99.99,,2013-01-08 21:03:00,
2013-01-08 16:13:00,39.0,-99.9,-100.00,West,261,2.0,3.0,-999,-99.99,,,-99.99,,2013-01-08 21:13:00,
2013-01-08 17:04:00,43.0,-99.9,30.29,North,-999,-999.0,-999.0,-999,-99.99,,,-99.99,,2013-01-08 22:04:00,
2013-01-08 17:13:00,43.0,-99.9,30.29,SSW,194,4.0,6.0,-999,-99.99,,,-99.99,,2013-01-08 22:13:00,
2013-01-08 17:33:00,42.0,-99.9,30.29,South,186,4.0,9.0,-999,-99.99,,,-99.99,,2013-01-08 22:33:00,
2013-01-08 17:43:00,41.0,-99.9,30.28,South,185,5.0,9.0,-999,-99.99,,,-99.99,,2013-01-08 22:43:00,
2013-01-08 17:53:00,-999.0,-99.9,-100.00,SSW,199,6.0,10.0,-999,-99.99,,,-99.99,,2013-01-08 22:53:00,
2013-01-08 18:03:00,41.0,-99.9,30.28,South,189,4.0,8.0,-999,-99.99,,,-99.99,,2013-01-08 23:03:00,
2013-01-08 18:13:00,40.0,-99.9,30.29,South,189,2.0,9.0,-999,-99.99,,,-99.99,,2013-01-08 23:13:00,
2013-01-08 18:43:00,40.0,-99.9,-100.00,South,171,4.0,7.0,-999,-99.99,,,-99.99,,2013-01-08 23:43:00,
2013-01-08 18:53:00,40.0,-99.9,30.29,SSE,168,3.0,9.0,-999,-99.99,,,-99.99,,2013-01-08 23:53:00,
2013-01-08 19:13:00,39.0,-99.9,-100.00,South,184,4.0,11.0,-999,-99.99,,,-99.99,,2013-01-09 00:13:00,
2013-01-08 19:33:00,39.0,-99.9,30.29,SSE,167,5.0,10.0,-999,-99.99,,,-99.99,,2013-01-09 00:33:00,
2013-01-08 19:43:00,38.0,-99.9,30.29,SSE,163,4.0,11.0,-999,-99.99,,,-99.99,,2013-01-09 00:43:00,
2013-01-08 20:12:00,38.0,-99.9,30.29,South,174,5.0,12.0,-999,-99.99,,,-99.99,,2013-01-09 01:12:00,
2013-01-08 20:33:00,37.0,-99.9,30.30,South,171,6.0,11.0,-999,-99.99,,,-99.99,,2013-01-09 01:33:00,
2013-01-08 20:43:00,37.0,-99.9,30.30,South,170,8.0,12.0,-999,-99.99,,,-99.99,,2013-01-09 01:43:00,
2013-01-08 20:53:00,-999.0,-99.9,-100.00,SSE,168,6.0,11.0,-999,-99.99,,,-99.99,,2013-01-09 01:53:00,
2013-01-08 21:02:00,37.0,-99.9,30.30,South,172,6.0,11.0,-999,-99.99,,,-99.99,,2013-01-09 02:02:00,
2013-01-08 21:12:00,37.0,-99.9,30.30,South,175,5.0,12.0,-999,-99.99,,,-99.99,,2013-01-09 02:12:00,
2013-01-08 21:33:00,37.0,-99.9,30.29,South,171,6.0,10.0,-999,-99.99,,,-99.99,,2013-01-09 02:33:00,
2013-01-08 21:43:00,-999.0,-99.9,-100.00,South,178,4.0,11.0,-999,-99.99,,,-99.99,,2013-01-09 02:43:00,
2013-01-08 21:53:00,37.0,-99.9,30.28,South,170,6.0,11.0,-999,-99.99,,,-99.99,,2013-01-09 02:53:00,
2013-01-08 22:12:00,37.0,-99.9,30.27,South,171,6.0,11.0,-999,-99.99,,,-99.99,,2013-01-09 03:12:00,
2013-01-08 22:22:00,-999.0,-99.9,-100.00,South,173,5.0,10.0,-999,-99.99,,,-99.99,,2013-01-09 03:22:00,
2013-01-08 22:33:00,38.0,-99.9,30.26,South,175,6.0,12.0,-999,-99.99,,,-99.99,,2013-01-09 03:33:00,
2013-01-08 22:43:00,38.0,-99.9,30.26,South,169,6.0,11.0,-999,-99.99,,,-99.99,,2013-01-09 03:43:00,
2013-01-08 23:12:00,-999.0,-99.9,-100.00,South,169,5.0,11.0,-999,-99.99,,,-99.99,,2013-01-09 04:12:00,
2013-01-08 23:33:00,37.0,-99.9,30.26,SSE,168,5.0,11.0,-999,-99.99,,,-99.99,,2013-01-09 04:33:00,
2013-01-08 23:43:00,37.0,-99.9,-100.00,SSE,167,5.0,12.0,-999,-99.99,,,-99.99,,2013-01-09 04:43:00,
2013-01-08 23:53:00,-999.0,-99.9,-100.00,SSE,167,5.0,11.0,-999,-99.99,,,-99.99,,2013-01-09 04:53:00,